Temperature
17 17 17 17 17 17 16 16 16 16 16 16 16 16 15 15 15 15 15 15 15 15 15 15 15 14 14 14 14 14 14 14 14 13 13 13 13 13
17 17 17 17 17 16 16 16 16 16 15 15 15 15 15 15 15 15 15 15 14 14 14 14 14 14 14 14 14 14 13 13 13 13 13 13 13 13
17 17 16 16 16 16 16 16 16 16 15 15 15 15 15 15 15 15 14 14 14 14 14 14 14 14 14 14 13 13 13 13 13 13 13 13 13 12
16 16 16 16 16 16 16 16 15 15 15 15 15 15 14 14 14 14 14 14 14 14 14 14 13 13 13 13 13 13 13 13 13 12 12 12 12 12
16 16 16 16 16 16 15 15 15 15 15 15 15 14 14 14 14 14 13 13 13 13 13 13 13 13 13 13 13 13 12 12 12 12 12 12 12 12
16 16 16 16 16 15 15 15 15 15 14 14 14 14 13 13 13 13 13 13 13 13 13 13 13 13 12 12 12 12 12 12 12 12 11 11 11 11
16 16 15 15 15 15 15 15 15 14 14 14 14 13 13 13 13 13 12 12 12 12 12 12 12 12 12 12 12 12 12 11 11 11 11 11 11 11
16 15 15 15 15 15 14 14 14 14 14 14 13 13 13 13 13 12 12 12 12 12 12 12 12 12 12 12 11 11 11 11 11 11 10 10 10 10
15 15 14 14 14 14 14 14 14 14 13 13 13 13 13 13 12 12 12 12 12 12 11 11 11 11 11 11 11 11 11 11 10 10 10 10 10 10
15 15 14 14 14 14 14 14 13 13 13 13 13 13 13 13 12 12 12 12 12 11 11 11 11 11 11 11 11 11 10 10 10 10 10 10 10 9
14 14 14 14 14 14 13 13 13 13 13 13 13 13 13 12 12 12 12 11 11 11 11 11 10 10 10 11 10 10 10 10 10 10 10 9 9 9
14 14 14 14 14 14 13 13 13 13 13 13 13 12 12 12 12 12 11 11 11 11 11 11 10 10 10 10 10 10 10 10 10 10 9 9 9 9
14 14 14 14 13 13 13 13 13 12 12 12 12 12 12 12 12 12 11 11 11 11 11 10 10 10 10 10 10 10 10 10 10 9 9 9 9 9
14 13 13 13 13 13 13 12 12 12 12 12 12 12 12 12 11 11 11 11 11 11 11 10 10 10 10 10 9 9 9 9 9 9 9 9 9 8
13 13 13 13 13 13 12 12 12 12 11 11 11 11 11 11 11 11 11 11 11 10 10 10 10 10 10 10 9 9 9 9 9 9 9 9 8 8
13 13 13 12 12 12 12 12 11 11 11 11 11 11 11 11 11 11 11 10 10 10 10 10 10 10 9 9 9 9 9 9 9 9 8 8 8 8
13 12 12 12 12 11 11 11 11 11 11 11 11 10 10 10 10 10 10 10 10 10 10 10 10 9 9 9 9 9 9 9 9 8 8 8 8 8
12 12 11 11 11 11 11 11 11 10 10 10 10 10 10 10 10 10 10 10 10 10 10 9 9 9 9 9 9 9 9 9 8 8 8 8 8 8
11 11 11 11 10 10 10 10 10 10 10 10 10 10 10 10 9 9 9 9 9 9 9 9 9 9 9 8 9 9 9 8 8 8 8 8 8 8
11 11 10 10 10 10 10 10 10 10 10 9 9 9 9 9 9 9 9 9 9 9 9 9 9 9 9 9 9 9 9 9 8 8 8 8 8 8
10 10 10 10 10 10 10 10 9 9 9 9 9 9 9 9 8 8 8 8 8 8 8 9 9 9 9 9 9 9 9 9 9 8 8 8 8 7
10 10 10 9 9 9 9 9 9 9 9 9 8 8 8 8 8 8 8 8 8 8 8 8 8 8 8 8 8 8 8 8 8 8 8 8 8 8
10 10 9 9 9 9 9 9 9 8 8 8 8 8 8 8 8 8 8 8 8 8 8 8 8 8 8 8 8 8 8 8 8 8 8 8 8 8
Wind_Speed
2 2 2 2 2 1 1 2 2 3 2 2 1 1 3 4 6 6 4 4 5 5 6 5 4 4 4 3 3 3 2 2 2 3 4 4 5 5
1 0 1 2 2 2 2 2 2 2 2 1 1 1 2 3 5 6 5 5 5 6 6 5 5 4 4 3 3 2 2 2 2 2 2 2 3 3
1 1 1 1 2 2 2 2 1 0 1 1 0 1 1 2 4 4 4 5 4 6 7 7 6 5 4 3 3 2 2 2 2 2 2 3 2 2
1 0 1 1 2 2 2 2 1 1 2 2 1 1 1 2 3 3 3 3 4 6 8 8 7 6 5 4 4 3 3 3 3 3 3 3 3 3
0 0 1 1 2 2 2 1 1 1 1 2 2 1 1 2 2 1 1 2 3 4 7 7 7 7 6 5 5 4 4 4 3 3 3 3 2 3
0 0 0 1 2 2 2 1 1 2 1 2 2 2 1 1 2 1 1 1 1 2 4 5 6 7 7 6 5 5 4 4 4 3 3 3 2 2
1 1 1 1 0 1 1 1 1 1 1 1 2 2 2 2 2 2 2 1 1 1 2 3 4 5 6 6 5 5 5 4 4 4 3 3 2 2
2 1 2 2 1 1 2 1 1 2 2 1 1 2 2 1 2 2 2 2 1 1 1 1 3 2 4 5 6 6 6 5 5 4 4 3 2 2
1 2 3 1 1 1 1 2 2 3 3 3 2 2 2 2 3 2 2 2 2 2 2 1 1 2 4 5 7 7 7 6 6 6 5 5 4 4
1 1 1 1 1 2 2 2 1 1 3 3 2 2 2 1 3 3 3 2 1 1 1 1 1 1 2 6 9 10 8 8 7 7 7 6 6 5
1 0 1 1 2 2 1 1 1 1 0 1 4 4 3 3 3 2 2 2 1 1 1 1 1 1 1 2 7 11 11 10 10 9 9 7 6 6
2 1 1 1 0 1 1 1 2 1 1 1 1 3 3 4 4 3 2 2 1 1 1 1 1 0 1 1 3 7 9 9 11 11 10 9 7 6
3 2 1 2 1 0 1 2 3 2 2 2 2 1 2 2 3 3 3 2 2 1 1 1 1 1 2 1 2 4 6 6 8 8 10 10 9 7
1 2 2 3 2 1 1 2 3 2 2 2 2 1 1 1 2 3 3 3 3 3 3 2 1 2 2 2 1 1 3 5 6 5 7 8 9 10
0 2 3 3 2 2 3 3 2 2 2 2 2 2 2 2 1 1 2 3 3 4 5 5 3 2 2 2 2 2 2 3 4 3 4 5 6 6
2 3 4 4 3 2 2 3 3 2 2 2 2 1 1 2 2 2 2 2 3 3 4 6 5 4 3 3 2 2 2 3 3 3 3 4 6 8
3 3 2 2 3 3 2 2 2 2 2 2 1 1 1 2 2 2 2 2 3 4 3 3 4 5 4 3 3 3 3 3 3 3 4 4 4 6
3 2 2 2 2 2 2 2 2 2 2 2 2 2 2 2 2 2 2 3 4 3 3 3 3 2 3 3 5 4 3 3 3 3 4 4 5 5
3 2 1 1 1 1 1 2 2 2 1 1 2 2 2 2 2 2 3 3 3 3 3 3 3 4 5 5 5 7 5 4 4 4 4 4 5 5
2 2 1 1 1 1 1 1 1 1 1 1 2 2 2 3 3 3 3 3 4 4 4 4 4 5 6 6 4 4 9 6 4 4 4 4 3 3
2 2 1 1 0 0 1 1 1 1 1 1 2 2 3 3 3 4 4 4 4 4 5 4 5 7 5 4 4 4 4 9 7 4 4 4 3 3
2 1 1 1 0 0 0 1 1 1 1 1 2 3 3 3 4 5 4 4 4 4 5 4 4 4 4 5 6 5 4 3 6 9 7 7 4 4
2 1 1 1 1 1 0 1 1 1 1 2 3 3 3 4 4 5 5 5 4 4 4 4 4 4 4 5 5 4 4 4 4 4 5 9 11 10
Wind_Direction
252 261 264 278 286 291 257 232 228 241 248 224 196 151 134 138 147 141 129 157 170 174 176 178 177 173 173 179 186 187 197 211 231 227 221 225 224 224
223 275 290 300 308 311 282 266 259 245 240 233 239 180 147 150 141 136 136 153 172 170 169 166 161 159 163 172 175 175 178 194 205 186 184 199 200 209
244 230 256 292 318 317 316 297 281 206 221 251 263 104 132 134 133 145 151 158 155 166 168 163 159 160 159 160 163 164 165 162 157 159 161 167 174 182
226 281 304 294 292 294 298 296 286 256 214 227 229 217 184 154 152 168 161 153 145 170 173 171 168 167 161 156 153 148 142 132 128 136 144 156 171 173
202 241 279 297 283 280 277 286 276 275 225 212 217 206 171 156 157 170 147 141 154 157 167 173 177 176 167 161 149 139 135 133 129 128 133 139 148 156
145 201 266 285 287 281 269 274 273 269 244 207 189 175 166 175 163 178 169 158 161 144 145 162 179 180 167 157 154 151 149 146 141 135 132 130 136 143
209 197 160 139 125 290 282 280 273 272 261 227 196 178 183 177 190 197 187 166 174 147 144 165 168 165 165 162 165 164 162 166 168 165 163 160 162 168
232 222 194 171 167 199 231 249 233 242 265 250 228 218 210 198 202 202 184 181 217 178 167 202 171 151 157 157 167 168 167 168 170 176 182 186 193 199
279 290 285 285 160 259 242 234 237 231 230 238 250 251 221 203 196 200 195 197 210 191 166 206 165 166 171 168 168 172 177 182 187 192 197 202 211 223
234 276 306 333 330 309 250 219 209 230 244 230 223 245 232 215 199 207 200 187 167 149 142 202 204 209 173 172 184 186 191 197 204 208 209 215 220 227
210 222 183 266 334 338 263 230 203 221 310 199 195 195 199 191 169 164 186 177 210 199 153 210 221 239 195 184 192 195 199 204 210 215 218 222 228 225
186 165 125 162 79 37 250 241 236 242 255 252 210 199 196 187 182 186 195 205 236 215 176 190 210 179 246 212 193 199 208 216 219 220 221 224 226 217
195 174 132 136 134 39 280 261 254 258 242 222 207 188 187 177 175 192 198 203 226 236 194 175 226 218 224 242 223 201 199 207 213 223 225 222 222 217
219 150 141 159 176 235 250 279 283 263 250 216 184 181 185 185 193 200 206 212 221 220 201 180 217 225 231 255 262 216 211 203 197 203 206 215 224 226
111 136 168 186 201 233 235 249 266 258 254 238 215 208 196 194 183 185 199 205 223 233 221 216 214 231 238 250 244 225 226 223 207 207 201 199 209 214
199 198 194 203 225 252 234 228 226 239 252 254 244 234 189 179 192 205 214 206 217 231 240 241 228 219 242 252 247 247 229 223 215 217 210 210 213 212
200 201 199 206 213 213 210 212 223 236 253 269 281 273 237 213 213 217 216 223 229 232 232 229 228 223 227 241 251 247 240 241 225 210 216 223 218 207
196 206 215 223 229 233 230 226 224 231 245 249 262 268 260 246 235 243 240 236 242 238 232 217 210 228 243 253 243 247 243 242 236 221 222 231 231 217
186 220 229 255 259 248 236 225 228 229 245 249 250 258 262 263 258 252 249 256 253 248 244 230 218 226 243 251 244 233 239 246 236 227 228 232 237 228
206 230 224 249 265 277 280 260 243 220 237 260 265 270 265 262 261 260 257 261 261 257 253 241 228 230 241 249 250 244 229 235 234 233 235 236 231 230
208 223 228 241 236 2 351 357 10 0 317 284 277 281 280 275 271 272 268 269 268 264 262 258 250 245 245 237 247 243 226 218 224 229 233 236 239 231
215 212 231 245 127 74 81 349 331 337 325 303 300 297 291 288 284 279 274 271 264 266 271 272 268 253 248 252 254 247 240 220 227 235 237 229 218 224
215 210 208 202 197 185 256 288 296 305 318 315 305 294 289 284 280 276 271 269 271 273 277 279 275 261 257 258 259 253 243 234 223 221 240 243 235 232
Height
1543 1543 1543 1543 1543 1543 1542 1542 1543 1542 1541 1541 1541 1541 1540 1540 1540 1539 1539 1538 1537 1537 1538 1538 1538 1538 1538 1538 1538 1538 1539 1539 1539 1539 1540 1540 1541 1541
1541 1540 1540 1540 1540 1540 1540 1539 1539 1539 1538 1538 1539 1538 1538 1537 1537 1537 1536 1536 1536 1535 1535 1535 1535 1535 1535 1535 1535 1535 1535 1535 1535 1535 1536 1536 1536 1537
1539 1539 1538 1538 1538 1537 1537 1537 1536 1536 1536 1535 1536 1536 1535 1535 1534 1534 1534 1533 1533 1533 1533 1533 1533 1533 1532 1532 1532 1532 1532 1532 1532 1532 1532 1532 1532 1533
1537 1536 1536 1535 1535 1534 1534 1534 1534 1534 1534 1533 1533 1533 1533 1533 1532 1532 1531 1531 1531 1531 1531 1531 1530 1530 1530 1530 1529 1529 1529 1529 1529 1529 1529 1529 1529 1529
1534 1534 1533 1532 1532 1532 1531 1531 1531 1531 1531 1530 1530 1530 1530 1530 1530 1530 1530 1529 1529 1529 1528 1528 1528 1528 1528 1527 1527 1527 1526 1526 1526 1526 1526 1526 1526 1526
1531 1531 1530 1530 1529 1529 1528 1528 1528 1528 1528 1527 1527 1527 1527 1527 1527 1527 1527 1527 1527 1527 1526 1526 1526 1526 1526 1525 1525 1525 1524 1524 1524 1524 1524 1523 1523 1524
1528 1528 1528 1527 1527 1526 1526 1525 1525 1525 1525 1524 1524 1524 1525 1524 1524 1524 1525 1525 1525 1524 1524 1524 1524 1524 1524 1524 1523 1523 1523 1522 1522 1522 1521 1521 1521 1521
1526 1525 1525 1524 1524 1524 1523 1523 1522 1522 1522 1522 1521 1521 1521 1521 1521 1522 1522 1522 1522 1523 1522 1522 1522 1522 1522 1522 1522 1522 1521 1520 1520 1520 1520 1520 1520 1520
1523 1523 1522 1522 1521 1521 1520 1520 1520 1519 1519 1519 1519 1518 1518 1518 1519 1519 1519 1520 1520 1520 1521 1520 1521 1520 1520 1520 1520 1520 1519 1519 1518 1518 1518 1518 1518 1518
1520 1520 1519 1519 1518 1518 1517 1517 1516 1516 1516 1516 1516 1516 1516 1516 1516 1517 1517 1518 1518 1519 1519 1518 1518 1518 1518 1518 1518 1518 1517 1517 1517 1516 1516 1516 1516 1515
1517 1517 1516 1516 1515 1515 1514 1514 1514 1514 1514 1514 1514 1513 1513 1513 1514 1514 1514 1515 1515 1516 1516 1516 1516 1516 1516 1516 1516 1516 1516 1515 1515 1515 1514 1514 1514 1513
1514 1513 1513 1513 1513 1512 1511 1511 1511 1511 1511 1511 1512 1511 1511 1511 1511 1512 1512 1513 1513 1513 1514 1514 1514 1514 1514 1514 1514 1513 1513 1513 1513 1512 1512 1512 1511 1511
1511 1510 1510 1510 1510 1510 1509 1509 1509 1509 1509 1509 1509 1509 1509 1509 1509 1510 1510 1511 1511 1511 1512 1512 1512 1512 1512 1511 1511 1511 1511 1511 1510 1510 1509 1509 1509 1508
1508 1508 1508 1508 1508 1507 1507 1507 1507 1507 1507 1507 1507 1507 1507 1507 1507 1507 1508 1509 1509 1509 1509 1510 1509 1509 1509 1509 1508 1508 1508 1508 1508 1507 1507 1506 1506 1505
1505 1505 1505 1505 1505 1505 1505 1505 1505 1505 1506 1506 1505 1505 1505 1505 1505 1506 1506 1506 1507 1507 1507 1507 1507 1507 1507 1506 1506 1505 1505 1505 1504 1504 1504 1503 1502 1502
1503 1503 1503 1503 1503 1502 1502 1503 1503 1503 1503 1504 1504 1504 1504 1503 1503 1503 1504 1504 1504 1504 1504 1504 1504 1504 1503 1503 1503 1503 1502 1502 1501 1500 1500 1499 1499 1499
1500 1500 1500 1500 1500 1500 1500 1500 1500 1500 1500 1501 1501 1501 1501 1501 1501 1501 1501 1501 1501 1500 1500 1500 1500 1501 1501 1500 1500 1499 1499 1498 1498 1497 1496 1496 1495 1495
1497 1497 1497 1498 1498 1498 1498 1498 1497 1497 1497 1498 1498 1498 1498 1498 1498 1498 1498 1498 1497 1497 1497 1497 1497 1496 1497 1496 1497 1496 1495 1495 1494 1493 1493 1492 1492 1491
1495 1495 1495 1495 1496 1496 1496 1496 1495 1495 1495 1495 1495 1495 1495 1495 1495 1494 1494 1494 1494 1493 1493 1493 1493 1493 1492 1491 1491 1492 1491 1490 1490 1489 1489 1488 1487 1487
1492 1492 1492 1493 1493 1494 1494 1494 1493 1493 1493 1493 1493 1493 1493 1492 1492 1491 1491 1491 1490 1490 1489 1489 1489 1489 1488 1488 1487 1487 1487 1486 1486 1485 1485 1484 1483 1483
1488 1489 1489 1490 1490 1490 1490 1491 1490 1490 1490 1490 1490 1490 1490 1489 1488 1488 1488 1487 1487 1486 1485 1485 1484 1485 1484 1484 1483 1482 1482 1482 1481 1481 1481 1480 1479 1478
1485 1485 1486 1486 1487 1487 1487 1488 1487 1487 1487 1487 1486 1486 1486 1486 1485 1484 1484 1483 1483 1482 1481 1481 1481 1480 1480 1479 1478 1477 1477 1477 1476 1476 1476 1476 1474 1473
1482 1482 1482 1483 1483 1484 1484 1484 1484 1484 1484 1483 1483 1482 1482 1481 1481 1481 1480 1479 1479 1478 1477 1477 1476 1475 1474 1474 1473 1472 1472 1472 1472 1471 1471 1471 1470 1470